This is the latest recevied weather packets stored in our database for station/object KD4IZ-13. If no packets are shown the sender has not sent any weather packets the latest 10 day(s).
| Time | Temp. | Humidity | Pressure | Rain* | Wind** | Luminosity | Snow |
|---|---|---|---|---|---|---|---|
| 1778201317 | 13.89° C | 69% | 1011.2 hPa | 0 mm | - | 0 W/m² | - |
| 1778201013 | 13.89° C | 68% | 1011.1 hPa | 0 mm | - | 0 W/m² | - |
| 1778200710 | 13.89° C | 67% | 1011 hPa | 0 mm | - | 0 W/m² | - |
| 1778200407 | 13.89° C | 67% | 1010.9 hPa | 0 mm | - | 0 W/m² | - |
| 1778200104 | 13.89° C | 66% | 1010.8 hPa | 0 mm | - | 0 W/m² | - |
| 1778199801 | 13.89° C | 64% | 1010.9 hPa | 0 mm | - | 0 W/m² | - |
| 1778199497 | 13.89° C | 62% | 1011 hPa | 0 mm | - | 0 W/m² | - |
| 1778199193 | 13.89° C | 66% | 1010.6 hPa | 0 mm | - | 0 W/m² | - |
| 1778198889 | 13.89° C | 63% | 1010.4 hPa | 0 mm | - | 0 W/m² | - |
| 1778198586 | 13.89° C | 64% | 1010.7 hPa | 0 mm | - | 0 W/m² | - |
| 1778198283 | 13.89° C | 63% | 1010.5 hPa | 0 mm | - | 2 W/m² | - |
| 1778197980 | 14.44° C | 62% | 1010.3 hPa | 0 mm | - | 3 W/m² | - |
| 1778197677 | 14.44° C | 62% | 1010.5 hPa | 0 mm | - | 6 W/m² | - |
| 1778197373 | 14.44° C | 60% | 1010.7 hPa | 0 mm | - | 9 W/m² | - |
| 1778197070 | 15° C | 60% | 1010.4 hPa | 0 mm | - | 11 W/m² | - |
| 1778196768 | 15° C | 64% | 1010.4 hPa | 0 mm | - | 16 W/m² | - |
| 1778196465 | 15.56° C | 60% | 1010.2 hPa | 0 mm | - | 18 W/m² | - |
| 1778196162 | 16.11° C | 57% | 1010.1 hPa | 0 mm | - | 24 W/m² | - |
| 1778195858 | 16.11° C | 51% | 1010.1 hPa | 0 mm | - | 26 W/m² | - |
| 1778195556 | 16.67° C | 48% | 1010.2 hPa | 0 mm | - | 29 W/m² | - |
| 1778195252 | 17.22° C | 53% | 1010.1 hPa | 0 mm | - | 36 W/m² | - |
| 1778194950 | 16.67° C | 47% | 1010 hPa | 0 mm | - | 46 W/m² | - |
| 1778194649 | 16.67° C | 50% | 1010.1 hPa | 0 mm | - | 80 W/m² | - |
| 1778194346 | 16.67° C | 46% | 1010.1 hPa | 0 mm | - | 88 W/m² | - |
| 1778194041 | 16.67° C | 50% | 1010.1 hPa | 0 mm | - | 50 W/m² | - |
* Rain latest hour (hover to see other rain measurements)
** Current wind speed in m/s (hover to see current wind gust speed)